TimeEST,TemperatureF,Dew PointF,Humidity,Sea Level PressureIn,VisibilityMPH,Wind Direction,Wind SpeedMPH,Gust SpeedMPH,PrecipitationIn,Events,Conditions,WindDirDegrees,DateUTC
12:39 AM,35.6,33.8,93,29.90,2.0,NNE,21.9,38.0,0.00,Snow,Light Snow,30,2013-03-07 05:39:00
12:53 AM,36.0,33.1,89,29.90,2.5,NNE,21.9,42.6,0.01,Snow,Light Snow,30,2013-03-07 05:53:00
1:49 AM,35.6,33.8,93,29.89,3.0,NNE,18.4,36.8,0.02,Snow,Light Snow,20,2013-03-07 06:49:00
1:53 AM,36.0,32.0,86,29.89,3.0,NNE,23.0,36.8,0.03,Snow,Light Snow,20,2013-03-07 06:53:00
2:13 AM,35.6,32.0,87,29.88,2.5,NNE,17.3,32.2,0.00,Snow,Light Snow,30,2013-03-07 07:13:00
2:43 AM,35.6,32.0,87,29.88,2.0,NNE,21.9,35.7,0.02,Snow,Light Snow,20,2013-03-07 07:43:00
2:50 AM,35.6,32.0,87,29.88,1.5,NNE,19.6,34.5,0.03,Snow,Light Snow,20,2013-03-07 07:50:00
2:53 AM,35.1,32.0,89,29.88,1.8,NNE,16.1,31.1,0.03,Snow,Light Snow,20,2013-03-07 07:53:00
3:16 AM,35.6,32.0,87,29.87,2.5,NNE,18.4,39.1,0.02,Snow,Light Snow,20,2013-03-07 08:16:00
3:26 AM,35.6,32.0,87,29.87,4.0,NNE,16.1,31.1,0.02,Snow,Light Snow,20,2013-03-07 08:26:00
3:53 AM,35.1,32.0,89,29.88,4.0,NNE,19.6,31.1,0.02,Snow,Light Snow,20,2013-03-07 08:53:00
4:07 AM,35.6,32.0,87,29.88,2.0,NNE,18.4,39.1,0.01,Snow,Light Snow,20,2013-03-07 09:07:00
4:18 AM,33.8,32.0,93,29.88,1.5,NNE,19.6,34.5,0.02,Snow,Light Snow,20,2013-03-07 09:18:00
4:37 AM,33.8,32.0,93,29.88,1.2,NNE,16.1,29.9,0.04,Snow,Light Snow,20,2013-03-07 09:37:00
4:53 AM,34.0,32.0,92,29.88,1.2,NNE,20.7,29.9,0.06,Snow,Light Snow,20,2013-03-07 09:53:00
5:26 AM,33.8,32.0,93,29.89,0.8,NNE,15.0,33.4,0.04,Snow,Light Snow,20,2013-03-07 10:26:00
5:50 AM,33.8,32.0,93,29.89,0.8,NNE,17.3,25.3,0.07,Snow,Light Snow,20,2013-03-07 10:50:00
5:53 AM,34.0,32.0,92,29.89,0.8,NNE,12.7,28.8,0.08,Snow,Light Snow,20,2013-03-07 10:53:00
6:16 AM,33.8,32.0,93,29.89,1.0,NNE,16.1,25.3,0.02,Snow,Light Snow,20,2013-03-07 11:16:00
6:31 AM,33.8,32.0,93,29.89,0.8,NNE,13.8,29.9,0.03,Snow,Light Snow,20,2013-03-07 11:31:00
6:53 AM,34.0,32.0,92,29.89,0.5,NNE,13.8,28.8,0.05,Fog-Snow,Snow,20,2013-03-07 11:53:00
7:38 AM,33.8,32.0,93,29.90,0.5,NNE,15.0,26.5,0.04,Fog-Snow,Snow,20,2013-03-07 12:38:00
7:53 AM,34.0,32.0,92,29.91,0.8,NNE,13.8,25.3,0.05,Snow,Light Snow,20,2013-03-07 12:53:00
8:49 AM,33.8,32.0,93,29.90,1.0,NNE,13.8,24.2,0.04,Snow,Light Snow,20,2013-03-07 13:49:00
8:53 AM,35.1,32.0,89,29.90,1.2,NNE,18.4,28.8,0.04,Snow,Light Snow,20,2013-03-07 13:53:00
9:53 AM,36.0,33.1,89,29.89,3.0,NNE,16.1,29.9,0.06,Snow,Light Snow,20,2013-03-07 14:53:00
10:10 AM,35.6,33.8,93,29.89,2.5,NNE,17.3,28.8,0.01,Snow,Light Snow,20,2013-03-07 15:10:00
10:17 AM,35.6,33.8,93,29.89,3.0,NNE,18.4,27.6,0.02,Snow,Light Snow,20,2013-03-07 15:17:00
10:53 AM,36.0,33.1,89,29.90,3.0,NNE,17.3,33.4,0.03,Snow,Light Snow,20,2013-03-07 15:53:00
11:53 AM,36.0,33.1,89,29.90,2.5,North,13.8,28.8,0.04,Snow,Light Snow,10,2013-03-07 16:53:00
12:53 PM,36.0,33.1,89,29.90,2.0,NNE,18.4,26.5,0.04,Snow,Light Snow,30,2013-03-07 17:53:00
1:53 PM,35.1,32.0,89,29.90,1.5,NNE,13.8,32.2,0.03,Snow,Light Snow,20,2013-03-07 18:53:00
2:53 PM,34.0,32.0,92,29.90,1.0,NNE,19.6,28.8,0.04,Snow,Light Snow,20,2013-03-07 19:53:00
3:53 PM,33.1,30.9,92,29.90,1.0,North,18.4,36.8,0.02,Snow,Light Snow,10,2013-03-07 20:53:00
4:53 PM,33.1,30.9,92,29.91,1.0,North,17.3,34.5,0.01,Snow,Light Snow,10,2013-03-07 21:53:00
5:53 PM,33.1,30.9,92,29.92,0.8,North,17.3,25.3,0.02,Snow,Light Snow,10,2013-03-07 22:53:00
6:53 PM,33.1,32.0,96,29.93,1.0,NNE,11.5,27.6,0.02,Snow,Light Snow,20,2013-03-07 23:53:00
7:53 PM,33.1,30.9,92,29.92,1.0,North,16.1,25.3,0.02,Snow,Light Snow,10,2013-03-08 00:53:00
8:20 PM,33.8,30.2,87,29.91,0.8,North,13.8,24.2,0.01,Snow,Light Snow,360,2013-03-08 01:20:00
8:27 PM,33.8,30.2,87,29.91,1.0,North,11.5,23.0,0.01,Snow,Light Snow,10,2013-03-08 01:27:00
8:53 PM,33.1,30.9,92,29.91,1.0,North,12.7,23.0,0.02,Snow,Light Snow,10,2013-03-08 01:53:00
9:23 PM,33.8,30.2,87,29.90,0.8,North,12.7,25.3,0.02,Snow,Light Snow,360,2013-03-08 02:23:00
9:33 PM,33.8,30.2,87,29.90,1.0,North,12.7,26.5,0.02,Snow,Light Snow,10,2013-03-08 02:33:00
9:53 PM,33.1,30.9,92,29.91,1.2,North,12.7,23.0,0.03,Snow,Light Snow,10,2013-03-08 02:53:00
10:53 PM,34.0,30.9,89,29.90,1.5,NNE,12.7,25.3,0.01,Snow,Light Snow,20,2013-03-08 03:53:00
11:53 PM,34.0,30.9,89,29.88,1.5,NNE,16.1,34.5,0.00,Snow,Light Snow,20,2013-03-08 04:53:00